Year,Month,Day,Hour,Minute,Value (Times are PST for temperature in C)
2022,07,26,00,00,20.20
2022,07,26,00,01,20.10
2022,07,26,00,02,20.10
2022,07,26,00,03,20.10
2022,07,26,00,04,20.10
2022,07,26,00,05,20.10
2022,07,26,00,06,20.10
2022,07,26,00,07,20.10
2022,07,26,00,08,20.10
2022,07,26,00,09,20.10
2022,07,26,00,10,20.10
2022,07,26,00,11,20.00
2022,07,26,00,12,20.10
2022,07,26,00,13,20.00
2022,07,26,00,14,20.00
2022,07,26,00,15,20.00
2022,07,26,00,16,19.90
2022,07,26,00,17,19.90
2022,07,26,00,18,19.90
2022,07,26,00,19,19.90
2022,07,26,00,20,19.90
2022,07,26,00,21,19.90
2022,07,26,00,22,20.00
2022,07,26,00,23,20.10
2022,07,26,00,24,20.20
2022,07,26,00,25,20.20
2022,07,26,00,26,20.30
2022,07,26,00,27,20.30
2022,07,26,00,28,20.30
2022,07,26,00,29,20.30
2022,07,26,00,30,20.30
2022,07,26,00,31,20.40
2022,07,26,00,32,20.50
2022,07,26,00,33,20.60
2022,07,26,00,34,20.80
2022,07,26,00,35,21.00
2022,07,26,00,36,21.20
2022,07,26,00,37,21.20
2022,07,26,00,38,21.30
2022,07,26,00,39,21.30
2022,07,26,00,40,21.30
2022,07,26,00,41,21.30
2022,07,26,00,42,21.30
2022,07,26,00,43,21.30
2022,07,26,00,44,21.20
2022,07,26,00,45,21.20
2022,07,26,00,46,21.20
2022,07,26,00,47,21.10
2022,07,26,00,48,21.10
2022,07,26,00,49,21.10
2022,07,26,00,50,21.00
2022,07,26,00,51,20.90
2022,07,26,00,52,20.80
2022,07,26,00,53,20.70
2022,07,26,00,54,20.70
2022,07,26,00,55,20.60
2022,07,26,00,56,20.60
2022,07,26,00,57,20.60
2022,07,26,00,58,20.60
2022,07,26,00,59,20.50
2022,07,26,01,00,20.50
2022,07,26,01,01,20.50
2022,07,26,01,02,20.40
2022,07,26,01,03,20.40
2022,07,26,01,04,20.30
2022,07,26,01,05,20.30
2022,07,26,01,06,20.30
2022,07,26,01,07,20.20
2022,07,26,01,08,20.20
2022,07,26,01,09,20.20
2022,07,26,01,10,20.20
2022,07,26,01,11,20.10
2022,07,26,01,12,20.10
2022,07,26,01,13,20.10
2022,07,26,01,14,20.00
2022,07,26,01,15,20.00
2022,07,26,01,16,19.90
2022,07,26,01,17,19.90
2022,07,26,01,18,20.00
2022,07,26,01,19,20.00
2022,07,26,01,20,20.00
2022,07,26,01,21,20.00
2022,07,26,01,22,20.00
2022,07,26,01,23,20.00
2022,07,26,01,24,20.00
2022,07,26,01,25,20.10
2022,07,26,01,26,20.20
2022,07,26,01,27,20.30
2022,07,26,01,28,20.40
2022,07,26,01,29,20.60
2022,07,26,01,30,20.90
2022,07,26,01,31,21.10
2022,07,26,01,32,21.30
2022,07,26,01,33,21.60
2022,07,26,01,34,21.80
2022,07,26,01,35,22.00
2022,07,26,01,36,22.10
2022,07,26,01,37,22.30
2022,07,26,01,38,22.40
2022,07,26,01,39,22.50
2022,07,26,01,40,22.60
2022,07,26,01,41,22.60
2022,07,26,01,42,22.70
2022,07,26,01,43,22.70
2022,07,26,01,44,22.70
2022,07,26,01,45,22.70
2022,07,26,01,46,22.80
2022,07,26,01,47,22.80
2022,07,26,01,48,22.70
2022,07,26,01,49,22.70
2022,07,26,01,50,22.70
2022,07,26,01,51,22.70
2022,07,26,01,52,22.70
2022,07,26,01,53,22.70
2022,07,26,01,54,22.80
2022,07,26,01,55,22.80
2022,07,26,01,56,22.90
2022,07,26,01,57,23.00
2022,07,26,01,58,23.00
2022,07,26,01,59,23.00
2022,07,26,02,00,23.00
2022,07,26,02,01,23.00
2022,07,26,02,02,22.90
2022,07,26,02,03,22.90
2022,07,26,02,04,22.90
2022,07,26,02,05,22.90
2022,07,26,02,06,22.90
2022,07,26,02,07,22.90
2022,07,26,02,08,22.90
2022,07,26,02,09,22.90
2022,07,26,02,10,22.80
2022,07,26,02,11,22.80
2022,07,26,02,12,22.80
2022,07,26,02,13,22.80
2022,07,26,02,14,22.90
2022,07,26,02,15,22.90
2022,07,26,02,16,22.80
2022,07,26,02,17,22.80
2022,07,26,02,18,22.80
2022,07,26,02,19,22.80
2022,07,26,02,20,22.80
2022,07,26,02,21,22.80
2022,07,26,02,22,22.70
2022,07,26,02,23,22.70
2022,07,26,02,24,22.70
2022,07,26,02,25,22.70
2022,07,26,02,26,22.60
2022,07,26,02,27,22.60
2022,07,26,02,28,22.60
2022,07,26,02,29,22.60
2022,07,26,02,30,22.50
2022,07,26,02,31,22.50
2022,07,26,02,32,22.40
2022,07,26,02,33,22.40
2022,07,26,02,34,22.40
2022,07,26,02,35,22.30
2022,07,26,02,36,22.30
2022,07,26,02,37,22.30
2022,07,26,02,38,22.30
2022,07,26,02,39,22.30
2022,07,26,02,40,22.30
2022,07,26,02,41,22.30
2022,07,26,02,42,22.30
2022,07,26,02,43,22.40
2022,07,26,02,44,22.30
2022,07,26,02,45,22.40
2022,07,26,02,46,22.40
2022,07,26,02,47,22.40
2022,07,26,02,48,22.40
2022,07,26,02,49,22.50
2022,07,26,02,50,22.40
2022,07,26,02,51,22.40
2022,07,26,02,52,22.40
2022,07,26,02,53,22.50
2022,07,26,02,54,22.50
2022,07,26,02,55,22.40
2022,07,26,02,56,22.40
2022,07,26,02,57,22.40
2022,07,26,02,58,22.40
2022,07,26,02,59,22.40
2022,07,26,03,00,22.40
2022,07,26,03,01,22.40
2022,07,26,03,02,22.40
2022,07,26,03,03,22.40
2022,07,26,03,04,22.40
2022,07,26,03,05,22.50
2022,07,26,03,06,22.50
2022,07,26,03,07,22.50
2022,07,26,03,08,22.50
2022,07,26,03,09,22.50
2022,07,26,03,10,22.40
2022,07,26,03,11,22.40
2022,07,26,03,12,22.40
2022,07,26,03,13,22.50
2022,07,26,03,14,22.50
2022,07,26,03,15,22.60
2022,07,26,03,16,22.60
2022,07,26,03,17,22.60
2022,07,26,03,18,22.60
2022,07,26,03,19,22.70
2022,07,26,03,20,22.70
2022,07,26,03,21,22.60
2022,07,26,03,22,22.60
2022,07,26,03,23,22.60
2022,07,26,03,24,22.60
2022,07,26,03,25,22.60
2022,07,26,03,26,22.60
2022,07,26,03,27,22.60
2022,07,26,03,28,22.60
2022,07,26,03,29,22.60
2022,07,26,03,30,22.60
2022,07,26,03,31,22.70
2022,07,26,03,32,22.70
2022,07,26,03,33,22.70
2022,07,26,03,34,22.70
2022,07,26,03,35,22.70
2022,07,26,03,36,22.80
2022,07,26,03,37,22.80
2022,07,26,03,38,22.80
2022,07,26,03,39,22.80
2022,07,26,03,40,22.90
2022,07,26,03,41,23.00
2022,07,26,03,42,23.00
2022,07,26,03,43,23.10
2022,07,26,03,44,23.20
2022,07,26,03,45,23.20
2022,07,26,03,46,23.30
2022,07,26,03,47,23.30
2022,07,26,03,48,23.40
2022,07,26,03,49,23.40
2022,07,26,03,50,23.40
2022,07,26,03,51,23.40
2022,07,26,03,52,23.40
2022,07,26,03,53,23.30
2022,07,26,03,54,23.30
2022,07,26,03,55,23.30
2022,07,26,03,56,23.30
2022,07,26,03,57,23.30
2022,07,26,03,58,23.30
2022,07,26,03,59,23.30
2022,07,26,04,00,23.40
2022,07,26,04,01,23.40
2022,07,26,04,02,23.30
2022,07,26,04,03,23.30
2022,07,26,04,04,23.30
2022,07,26,04,05,23.30
2022,07,26,04,06,23.30
2022,07,26,04,07,23.30
2022,07,26,04,08,23.20
2022,07,26,04,09,23.20
2022,07,26,04,10,23.20
2022,07,26,04,11,23.20
2022,07,26,04,12,23.20
2022,07,26,04,13,23.10
2022,07,26,04,14,23.10
2022,07,26,04,15,23.00
2022,07,26,04,16,23.00
2022,07,26,04,17,22.90
2022,07,26,04,18,22.90
2022,07,26,04,19,22.90
2022,07,26,04,20,22.90
2022,07,26,04,21,22.90
2022,07,26,04,22,22.80
2022,07,26,04,23,22.80
2022,07,26,04,24,22.70
2022,07,26,04,25,22.70
2022,07,26,04,26,22.70
2022,07,26,04,27,22.70
2022,07,26,04,28,22.60
2022,07,26,04,29,22.60
2022,07,26,04,30,22.50
2022,07,26,04,31,22.50
2022,07,26,04,32,22.40
2022,07,26,04,33,22.40
2022,07,26,04,34,22.40
2022,07,26,04,35,22.40
2022,07,26,04,36,22.30
2022,07,26,04,37,22.30
2022,07,26,04,38,22.30
2022,07,26,04,39,22.30
2022,07,26,04,40,22.30
2022,07,26,04,41,22.30
2022,07,26,04,42,22.30
2022,07,26,04,43,22.30
2022,07,26,04,44,22.20
2022,07,26,04,45,22.20
2022,07,26,04,46,22.20
2022,07,26,04,47,22.20
2022,07,26,04,48,22.20
2022,07,26,04,49,22.20
2022,07,26,04,50,22.20
2022,07,26,04,51,22.10
2022,07,26,04,52,22.10
2022,07,26,04,53,22.00
2022,07,26,04,54,22.00
2022,07,26,04,55,21.90
2022,07,26,04,56,21.90
2022,07,26,04,57,21.80
2022,07,26,04,58,21.70
2022,07,26,04,59,21.70
2022,07,26,05,00,21.70
2022,07,26,05,01,21.60
2022,07,26,05,02,21.60
2022,07,26,05,03,21.60
2022,07,26,05,04,21.50
2022,07,26,05,05,21.50
2022,07,26,05,06,21.40
2022,07,26,05,07,21.40
2022,07,26,05,08,21.30
2022,07,26,05,09,21.30
2022,07,26,05,10,21.30
2022,07,26,05,11,21.20
2022,07,26,05,12,21.20
2022,07,26,05,13,21.10
2022,07,26,05,14,21.10
2022,07,26,05,15,21.10
2022,07,26,05,16,21.00
2022,07,26,05,17,21.00
2022,07,26,05,18,20.90
2022,07,26,05,19,20.90
2022,07,26,05,20,20.90
2022,07,26,05,21,20.90
2022,07,26,05,22,20.80
2022,07,26,05,23,20.80
2022,07,26,05,24,20.70
2022,07,26,05,25,20.70
2022,07,26,05,26,20.70
2022,07,26,05,27,20.70
2022,07,26,05,28,20.70
2022,07,26,05,29,20.60
2022,07,26,05,30,20.60
2022,07,26,05,31,20.60
2022,07,26,05,32,20.60
2022,07,26,05,33,20.60
2022,07,26,05,34,20.60
2022,07,26,05,35,20.50
2022,07,26,05,36,20.50
2022,07,26,05,37,20.50
2022,07,26,05,38,20.50
2022,07,26,05,39,20.40
2022,07,26,05,40,20.40
2022,07,26,05,41,20.40
2022,07,26,05,42,20.40
2022,07,26,05,43,20.40
2022,07,26,05,44,20.40
2022,07,26,05,45,20.40
2022,07,26,05,46,20.40
2022,07,26,05,47,20.40
2022,07,26,05,48,20.30
2022,07,26,05,49,20.30
2022,07,26,05,50,20.30
2022,07,26,05,51,20.30
2022,07,26,05,52,20.30
2022,07,26,05,53,20.20
2022,07,26,05,54,20.20
2022,07,26,05,55,20.20
2022,07,26,05,56,20.20
2022,07,26,05,57,20.10
2022,07,26,05,58,20.10
2022,07,26,05,59,20.10
2022,07,26,06,00,20.10
2022,07,26,06,01,20.00
2022,07,26,06,02,20.00
2022,07,26,06,03,20.00
2022,07,26,06,04,20.00
2022,07,26,06,05,20.00
2022,07,26,06,06,20.00
2022,07,26,06,07,19.90
2022,07,26,06,08,19.90
2022,07,26,06,09,19.90
2022,07,26,06,10,19.90
2022,07,26,06,11,19.90
2022,07,26,06,12,19.90
2022,07,26,06,13,19.90
2022,07,26,06,14,19.90
2022,07,26,06,15,19.90
2022,07,26,06,16,19.90
2022,07,26,06,17,19.90
2022,07,26,06,18,19.90
2022,07,26,06,19,19.90
2022,07,26,06,20,19.90
2022,07,26,06,21,19.90
2022,07,26,06,22,19.80
2022,07,26,06,23,19.80
2022,07,26,06,24,19.80
2022,07,26,06,25,19.80
2022,07,26,06,26,19.80
2022,07,26,06,27,19.80
2022,07,26,06,28,19.80
2022,07,26,06,29,19.80
2022,07,26,06,30,19.80
2022,07,26,06,31,19.80
2022,07,26,06,32,19.70
2022,07,26,06,33,19.70
2022,07,26,06,34,19.70
2022,07,26,06,35,19.70
2022,07,26,06,36,19.70
2022,07,26,06,37,19.70
2022,07,26,06,38,19.70
2022,07,26,06,39,19.60
2022,07,26,06,40,19.60
2022,07,26,06,41,19.60
2022,07,26,06,42,19.60
2022,07,26,06,43,19.60
2022,07,26,06,44,19.60
2022,07,26,06,45,19.60
2022,07,26,06,46,19.60
2022,07,26,06,47,19.60
2022,07,26,06,48,19.60
2022,07,26,06,49,19.60
2022,07,26,06,50,19.50
2022,07,26,06,51,19.50
2022,07,26,06,52,19.50
2022,07,26,06,53,19.60
2022,07,26,06,54,19.60
2022,07,26,06,55,19.60
2022,07,26,06,56,19.60
2022,07,26,06,57,19.60
2022,07,26,06,58,19.60
2022,07,26,06,59,19.60
2022,07,26,07,00,19.60
2022,07,26,07,01,19.60
2022,07,26,07,02,19.70
2022,07,26,07,03,19.70
2022,07,26,07,04,19.70
2022,07,26,07,05,19.70
2022,07,26,07,06,19.70
2022,07,26,07,07,19.70
2022,07,26,07,08,19.70
2022,07,26,07,09,19.70
2022,07,26,07,10,19.70
2022,07,26,07,11,19.70
2022,07,26,07,12,19.70
2022,07,26,07,13,19.70
2022,07,26,07,14,19.70
2022,07,26,07,15,19.70
2022,07,26,07,16,19.70
2022,07,26,07,17,19.70
2022,07,26,07,18,19.70
2022,07,26,07,19,19.70
2022,07,26,07,20,19.70
2022,07,26,07,21,19.70
2022,07,26,07,22,19.70
2022,07,26,07,23,19.70
2022,07,26,07,24,19.70
2022,07,26,07,25,19.70
2022,07,26,07,26,19.70
2022,07,26,07,27,19.70
2022,07,26,07,28,19.70
2022,07,26,07,29,19.70
2022,07,26,07,30,19.70
2022,07,26,07,31,19.70
2022,07,26,07,32,19.70
2022,07,26,07,33,19.70
2022,07,26,07,34,19.70
2022,07,26,07,35,19.70
2022,07,26,07,36,19.70
2022,07,26,07,37,19.70
2022,07,26,07,38,19.70
2022,07,26,07,39,19.70
2022,07,26,07,40,19.70
2022,07,26,07,41,19.70
2022,07,26,07,42,19.70
2022,07,26,07,43,19.70
2022,07,26,07,44,19.70
2022,07,26,07,45,19.70
2022,07,26,07,46,19.70
2022,07,26,07,47,19.70
2022,07,26,07,48,19.70
2022,07,26,07,49,19.70
2022,07,26,07,50,19.80
2022,07,26,07,51,19.80
2022,07,26,07,52,19.80
2022,07,26,07,53,19.80
2022,07,26,07,54,19.80
2022,07,26,07,55,19.80
2022,07,26,07,56,19.80
2022,07,26,07,57,19.80
2022,07,26,07,58,19.90
2022,07,26,07,59,19.90
2022,07,26,08,00,19.90
2022,07,26,08,01,19.90
2022,07,26,08,02,19.90
2022,07,26,08,03,19.90
2022,07,26,08,04,20.00
2022,07,26,08,05,20.00
2022,07,26,08,06,20.00
2022,07,26,08,07,20.10
2022,07,26,08,08,20.10
2022,07,26,08,09,20.10
2022,07,26,08,10,20.10
2022,07,26,08,11,20.10
2022,07,26,08,12,20.20
2022,07,26,08,13,20.20
2022,07,26,08,14,20.20
2022,07,26,08,15,20.20
2022,07,26,08,16,20.20
2022,07,26,08,17,20.20
2022,07,26,08,18,20.20
2022,07,26,08,19,20.20
2022,07,26,08,20,20.20
2022,07,26,08,21,20.20
2022,07,26,08,22,20.30
2022,07,26,08,23,20.30
2022,07,26,08,24,20.30
2022,07,26,08,25,20.30
2022,07,26,08,26,20.30
2022,07,26,08,27,20.30
2022,07,26,08,28,20.30
2022,07,26,08,29,20.40
2022,07,26,08,30,20.40
2022,07,26,08,31,20.40
2022,07,26,08,32,20.40
2022,07,26,08,33,20.40
2022,07,26,08,34,20.40
2022,07,26,08,35,20.40
2022,07,26,08,36,20.40
2022,07,26,08,37,20.50
2022,07,26,08,38,20.50
2022,07,26,08,39,20.60
2022,07,26,08,40,20.60
2022,07,26,08,41,20.70
2022,07,26,08,42,20.70
2022,07,26,08,43,20.80
2022,07,26,08,44,20.80
2022,07,26,08,45,20.80
2022,07,26,08,46,20.90
2022,07,26,08,47,20.90
2022,07,26,08,48,21.00
2022,07,26,08,49,21.00
2022,07,26,08,50,21.10
2022,07,26,08,51,21.10
2022,07,26,08,52,21.10
2022,07,26,08,53,21.20
2022,07,26,08,54,21.20
2022,07,26,08,55,21.20
2022,07,26,08,56,21.20
2022,07,26,08,57,21.20
2022,07,26,08,58,21.20
2022,07,26,08,59,21.20
2022,07,26,09,00,21.20
2022,07,26,09,01,21.20
2022,07,26,09,02,21.20
2022,07,26,09,03,21.20
2022,07,26,09,04,21.20
2022,07,26,09,05,21.30
2022,07,26,09,06,21.30
2022,07,26,09,07,21.30
2022,07,26,09,08,21.30
2022,07,26,09,09,21.40
2022,07,26,09,10,21.40
2022,07,26,09,11,21.40
2022,07,26,09,12,21.40
2022,07,26,09,13,21.50
2022,07,26,09,14,21.50
2022,07,26,09,15,21.60
2022,07,26,09,16,21.60
2022,07,26,09,17,21.60
2022,07,26,09,18,21.70
2022,07,26,09,19,21.70
2022,07,26,09,20,21.70
2022,07,26,09,21,21.70
2022,07,26,09,22,21.70
2022,07,26,09,23,21.80
2022,07,26,09,24,21.80
2022,07,26,09,25,21.80
2022,07,26,09,26,21.90
2022,07,26,09,27,21.90
2022,07,26,09,28,21.90
2022,07,26,09,29,21.90
2022,07,26,09,30,22.00
2022,07,26,09,31,22.00
2022,07,26,09,32,22.00
2022,07,26,09,33,22.00
2022,07,26,09,34,22.10
2022,07,26,09,35,22.10
2022,07,26,09,36,22.10
2022,07,26,09,37,22.10
2022,07,26,09,38,22.10
2022,07,26,09,39,22.10
2022,07,26,09,40,22.10
2022,07,26,09,41,22.10
2022,07,26,09,42,22.10
2022,07,26,09,43,22.10
2022,07,26,09,44,22.10
2022,07,26,09,45,22.20
2022,07,26,09,46,22.20
2022,07,26,09,47,22.20
2022,07,26,09,48,22.30
2022,07,26,09,49,22.30
2022,07,26,09,50,22.30
2022,07,26,09,51,22.30
2022,07,26,09,52,22.30
2022,07,26,09,53,22.30
2022,07,26,09,54,22.40
2022,07,26,09,55,22.40
2022,07,26,09,56,22.40
2022,07,26,09,57,22.40
2022,07,26,09,58,22.40
2022,07,26,09,59,22.50
2022,07,26,10,00,22.60
2022,07,26,10,01,22.60
2022,07,26,10,02,22.70
2022,07,26,10,03,22.70
2022,07,26,10,04,22.80
2022,07,26,10,05,22.80
2022,07,26,10,06,22.80
2022,07,26,10,07,22.90
2022,07,26,10,08,22.90
2022,07,26,10,09,22.90
2022,07,26,10,10,23.10
2022,07,26,10,11,23.10
2022,07,26,10,12,23.20
2022,07,26,10,13,23.30
2022,07,26,10,14,23.30
2022,07,26,10,15,23.40
2022,07,26,10,16,23.50
2022,07,26,10,17,23.50
2022,07,26,10,18,23.60
2022,07,26,10,19,23.70
2022,07,26,10,20,23.80
2022,07,26,10,21,23.80
2022,07,26,10,22,23.80
2022,07,26,10,23,23.90
2022,07,26,10,24,23.90
2022,07,26,10,25,24.00
2022,07,26,10,26,24.10
2022,07,26,10,27,24.20
2022,07,26,10,28,24.20
2022,07,26,10,29,24.30
2022,07,26,10,30,24.40
2022,07,26,10,31,24.50
2022,07,26,10,32,24.60
2022,07,26,10,33,24.70
2022,07,26,10,34,24.70
2022,07,26,10,35,24.80
2022,07,26,10,36,24.80
2022,07,26,10,37,24.90
2022,07,26,10,38,24.90
2022,07,26,10,39,25.00
2022,07,26,10,40,25.00
2022,07,26,10,41,25.10
2022,07,26,10,42,25.20
2022,07,26,10,43,25.30
2022,07,26,10,44,25.30
2022,07,26,10,45,25.40
2022,07,26,10,46,25.50
2022,07,26,10,47,25.50
2022,07,26,10,48,25.60
2022,07,26,10,49,25.70
2022,07,26,10,50,25.80
2022,07,26,10,51,25.80
2022,07,26,10,52,25.80
2022,07,26,10,53,25.90
2022,07,26,10,54,25.80
2022,07,26,10,55,25.80
2022,07,26,10,56,25.80
2022,07,26,10,57,25.80
2022,07,26,10,58,25.80
2022,07,26,10,59,25.80
2022,07,26,11,00,25.80
2022,07,26,11,01,25.80
2022,07,26,11,02,25.90
2022,07,26,11,03,25.90
2022,07,26,11,04,25.90
2022,07,26,11,05,26.00
2022,07,26,11,06,26.00
2022,07,26,11,07,26.10
2022,07,26,11,08,26.10
2022,07,26,11,09,26.10
2022,07,26,11,10,26.20
2022,07,26,11,11,26.30
2022,07,26,11,12,26.30
2022,07,26,11,13,26.40
2022,07,26,11,14,26.40
2022,07,26,11,15,26.50
2022,07,26,11,16,26.60
2022,07,26,11,17,26.60
2022,07,26,11,18,26.60
2022,07,26,11,19,26.60
2022,07,26,11,20,26.60
2022,07,26,11,21,26.60
2022,07,26,11,22,26.60
2022,07,26,11,23,26.60
2022,07,26,11,24,26.50
2022,07,26,11,25,26.60
2022,07,26,11,26,26.50
2022,07,26,11,27,26.60
2022,07,26,11,28,26.60
2022,07,26,11,29,26.60
2022,07,26,11,30,26.70
2022,07,26,11,31,26.70
2022,07,26,11,32,26.80
2022,07,26,11,33,26.80
2022,07,26,11,34,26.90
2022,07,26,11,35,26.90
2022,07,26,11,36,27.00
2022,07,26,11,37,27.00
2022,07,26,11,38,27.00
2022,07,26,11,39,27.10
2022,07,26,11,40,27.20
2022,07,26,11,41,27.20
2022,07,26,11,42,27.20
2022,07,26,11,43,27.30
2022,07,26,11,44,27.40
2022,07,26,11,45,27.40
2022,07,26,11,46,27.40
2022,07,26,11,47,27.50
2022,07,26,11,48,27.60
2022,07,26,11,49,27.70
2022,07,26,11,50,27.80
2022,07,26,11,51,27.90
2022,07,26,11,52,27.90
2022,07,26,11,53,28.10
2022,07,26,11,54,28.20
2022,07,26,11,55,28.30
2022,07,26,11,56,28.30
2022,07,26,11,57,28.40
2022,07,26,11,58,28.50
2022,07,26,11,59,28.60
2022,07,26,12,00,28.70
2022,07,26,12,01,28.80
2022,07,26,12,02,28.80
2022,07,26,12,03,28.90
2022,07,26,12,04,28.90
2022,07,26,12,05,28.90
2022,07,26,12,06,28.90
2022,07,26,12,07,28.90
2022,07,26,12,08,28.90
2022,07,26,12,09,28.90
2022,07,26,12,10,28.90
2022,07,26,12,11,29.00
2022,07,26,12,12,29.00
2022,07,26,12,13,29.10
2022,07,26,12,14,29.10
2022,07,26,12,15,29.10
2022,07,26,12,16,29.10
2022,07,26,12,17,29.20
2022,07,26,12,18,29.20
2022,07,26,12,19,29.30
2022,07,26,12,20,29.30
2022,07,26,12,21,29.30
2022,07,26,12,22,29.30
2022,07,26,12,23,29.20
2022,07,26,12,24,29.20
2022,07,26,12,25,29.20
2022,07,26,12,26,29.10
2022,07,26,12,27,29.10
2022,07,26,12,28,29.10
2022,07,26,12,29,29.10
2022,07,26,12,30,29.10
2022,07,26,12,31,29.10
2022,07,26,12,32,29.20
2022,07,26,12,33,29.20
2022,07,26,12,34,29.20
2022,07,26,12,35,29.20
2022,07,26,12,36,29.30
2022,07,26,12,37,29.30
2022,07,26,12,38,29.40
2022,07,26,12,39,29.40
2022,07,26,12,40,29.40
2022,07,26,12,41,29.40
2022,07,26,12,42,29.30
2022,07,26,12,43,29.30
2022,07,26,12,44,29.30
2022,07,26,12,45,29.30
2022,07,26,12,46,29.30
2022,07,26,12,47,29.30
2022,07,26,12,48,29.30
2022,07,26,12,49,29.30
2022,07,26,12,50,29.40
2022,07,26,12,51,29.40
2022,07,26,12,52,29.40
2022,07,26,12,53,29.40
2022,07,26,12,54,29.50
2022,07,26,12,55,29.50
2022,07,26,12,56,29.50
2022,07,26,12,57,29.60
2022,07,26,12,58,29.60
2022,07,26,12,59,29.60
2022,07,26,13,00,29.70
2022,07,26,13,01,29.70
2022,07,26,13,02,29.70
2022,07,26,13,03,29.60
2022,07,26,13,04,29.70
2022,07,26,13,05,29.70
2022,07,26,13,06,29.70
2022,07,26,13,07,29.80
2022,07,26,13,08,29.80
2022,07,26,13,09,29.90
2022,07,26,13,10,29.90
2022,07,26,13,11,30.00
2022,07,26,13,12,30.10
2022,07,26,13,13,30.10
2022,07,26,13,14,30.20
2022,07,26,13,15,30.20
2022,07,26,13,16,30.20
2022,07,26,13,17,30.20
2022,07,26,13,18,30.20
2022,07,26,13,19,30.20
2022,07,26,13,20,30.20
2022,07,26,13,21,30.20
2022,07,26,13,22,30.20
2022,07,26,13,23,30.20
2022,07,26,13,24,30.20
2022,07,26,13,25,30.20
2022,07,26,13,26,30.20
2022,07,26,13,27,30.30
2022,07,26,13,28,30.30
2022,07,26,13,29,30.40
2022,07,26,13,30,30.40
2022,07,26,13,31,30.50
2022,07,26,13,32,30.50
2022,07,26,13,33,30.60
2022,07,26,13,34,30.60
2022,07,26,13,35,30.60
2022,07,26,13,36,30.60
2022,07,26,13,37,30.70
2022,07,26,13,38,30.70
2022,07,26,13,39,30.70
2022,07,26,13,40,30.70
2022,07,26,13,41,30.70
2022,07,26,13,42,30.70
2022,07,26,13,43,30.70
2022,07,26,13,44,30.80
2022,07,26,13,45,30.80
2022,07,26,13,46,30.80
2022,07,26,13,47,30.80
2022,07,26,13,48,30.90
2022,07,26,13,49,30.90
2022,07,26,13,50,31.00
2022,07,26,13,51,31.00
2022,07,26,13,52,31.10
2022,07,26,13,53,31.10
2022,07,26,13,54,31.10
2022,07,26,13,55,31.20
2022,07,26,13,56,31.20
2022,07,26,13,57,31.30
2022,07,26,13,58,31.30
2022,07,26,13,59,31.40
2022,07,26,14,00,31.50
2022,07,26,14,01,31.60
2022,07,26,14,02,31.60
2022,07,26,14,03,31.70
2022,07,26,14,04,31.80
2022,07,26,14,05,31.80
2022,07,26,14,06,31.80
2022,07,26,14,07,31.80
2022,07,26,14,08,31.80
2022,07,26,14,09,31.90
2022,07,26,14,10,31.90
2022,07,26,14,11,31.90
2022,07,26,14,12,31.90
2022,07,26,14,13,32.00
2022,07,26,14,14,32.00
2022,07,26,14,15,32.00
2022,07,26,14,16,32.10
2022,07,26,14,17,32.10
2022,07,26,14,18,32.10
2022,07,26,14,19,32.10
2022,07,26,14,20,32.10
2022,07,26,14,21,32.00
2022,07,26,14,22,32.00
2022,07,26,14,23,31.90
2022,07,26,14,24,31.90
2022,07,26,14,25,32.00
2022,07,26,14,26,32.00
2022,07,26,14,27,32.00
2022,07,26,14,28,32.00
2022,07,26,14,29,32.00
2022,07,26,14,30,31.90
2022,07,26,14,31,31.90
2022,07,26,14,32,31.90
2022,07,26,14,33,31.90
2022,07,26,14,34,32.00
2022,07,26,14,35,32.00
2022,07,26,14,36,32.00
2022,07,26,14,37,32.00
2022,07,26,14,38,32.10
2022,07,26,14,39,32.10
2022,07,26,14,40,32.10
2022,07,26,14,41,32.10
2022,07,26,14,42,32.10
2022,07,26,14,43,32.10
2022,07,26,14,44,32.00
2022,07,26,14,45,31.90
2022,07,26,14,46,31.90
2022,07,26,14,47,31.80
2022,07,26,14,48,31.80
2022,07,26,14,49,31.80
2022,07,26,14,50,31.70
2022,07,26,14,51,31.70
2022,07,26,14,52,31.80
2022,07,26,14,53,31.80
2022,07,26,14,54,31.80
2022,07,26,14,55,31.80
2022,07,26,14,56,31.90
2022,07,26,14,57,31.90
2022,07,26,14,58,31.90
2022,07,26,14,59,31.80
2022,07,26,15,00,31.90
2022,07,26,15,01,31.90
2022,07,26,15,02,31.90
2022,07,26,15,03,31.90
2022,07,26,15,04,32.00
2022,07,26,15,05,32.00
2022,07,26,15,06,32.00
2022,07,26,15,07,32.00
2022,07,26,15,08,32.10
2022,07,26,15,09,31.90
2022,07,26,15,10,31.70
2022,07,26,15,11,31.40
2022,07,26,15,12,31.10
2022,07,26,15,13,31.00
2022,07,26,15,14,30.80
2022,07,26,15,15,30.80
2022,07,26,15,16,30.70
2022,07,26,15,17,30.70
2022,07,26,15,18,30.70
2022,07,26,15,19,30.80
2022,07,26,15,20,30.90
2022,07,26,15,21,31.00
2022,07,26,15,22,31.20
2022,07,26,15,23,31.30
2022,07,26,15,24,31.50
2022,07,26,15,25,31.60
2022,07,26,15,26,31.80
2022,07,26,15,27,31.90
2022,07,26,15,28,32.00
2022,07,26,15,29,32.10
2022,07,26,15,30,32.20
2022,07,26,15,31,32.30
2022,07,26,15,32,32.40
2022,07,26,15,33,32.50
2022,07,26,15,34,32.60
2022,07,26,15,35,32.60
2022,07,26,15,36,32.70
2022,07,26,15,37,32.70
2022,07,26,15,38,32.80
2022,07,26,15,39,32.90
2022,07,26,15,40,32.90
2022,07,26,15,41,33.00
2022,07,26,15,42,33.10
2022,07,26,15,43,33.10
2022,07,26,15,44,33.20
2022,07,26,15,45,33.30
2022,07,26,15,46,33.30
2022,07,26,15,47,33.30
2022,07,26,15,48,33.40
2022,07,26,15,49,33.40
2022,07,26,15,50,33.40
2022,07,26,15,51,33.50
2022,07,26,15,52,33.50
2022,07,26,15,53,33.30
2022,07,26,15,54,33.10
2022,07,26,15,55,32.90
2022,07,26,15,56,32.60
2022,07,26,15,57,32.40
2022,07,26,15,58,32.10
2022,07,26,15,59,31.90
2022,07,26,16,00,31.60
2022,07,26,16,01,31.50
2022,07,26,16,02,31.30
2022,07,26,16,03,31.20
2022,07,26,16,04,31.10
2022,07,26,16,05,31.10
2022,07,26,16,06,31.10
2022,07,26,16,07,31.10
2022,07,26,16,08,31.20
2022,07,26,16,09,31.30
2022,07,26,16,10,31.40
2022,07,26,16,11,31.60
2022,07,26,16,12,31.80
2022,07,26,16,13,31.90
2022,07,26,16,14,32.10
2022,07,26,16,15,32.30
2022,07,26,16,16,32.40
2022,07,26,16,17,32.50
2022,07,26,16,18,32.50
2022,07,26,16,19,32.60
2022,07,26,16,20,32.60
2022,07,26,16,21,32.70
2022,07,26,16,22,32.70
2022,07,26,16,23,32.80
2022,07,26,16,24,32.90
2022,07,26,16,25,32.90
2022,07,26,16,26,33.00
2022,07,26,16,27,33.10
2022,07,26,16,28,33.10
2022,07,26,16,29,33.10
2022,07,26,16,30,33.20
2022,07,26,16,31,33.20
2022,07,26,16,32,33.20
2022,07,26,16,33,33.20
2022,07,26,16,34,33.20
2022,07,26,16,35,33.20
2022,07,26,16,36,33.20
2022,07,26,16,37,33.20
2022,07,26,16,38,33.20
2022,07,26,16,39,33.20
2022,07,26,16,40,33.30
2022,07,26,16,41,33.30
2022,07,26,16,42,33.40
2022,07,26,16,43,33.40
2022,07,26,16,44,33.40
2022,07,26,16,45,33.40
2022,07,26,16,46,33.40
2022,07,26,16,47,33.40
2022,07,26,16,48,33.40
2022,07,26,16,49,33.30
2022,07,26,16,50,33.30
2022,07,26,16,51,33.30
2022,07,26,16,52,33.30
2022,07,26,16,53,33.20
2022,07,26,16,54,33.30
2022,07,26,16,55,33.30
2022,07,26,16,56,33.30
2022,07,26,16,57,33.30
2022,07,26,16,58,33.30
2022,07,26,16,59,33.30
2022,07,26,17,00,33.30
2022,07,26,17,01,33.20
2022,07,26,17,02,33.00
2022,07,26,17,03,32.90
2022,07,26,17,04,32.70
2022,07,26,17,05,32.60
2022,07,26,17,06,32.40
2022,07,26,17,07,32.30
2022,07,26,17,08,32.20
2022,07,26,17,09,32.00
2022,07,26,17,10,31.90
2022,07,26,17,11,31.80
2022,07,26,17,12,31.60
2022,07,26,17,13,31.50
2022,07,26,17,14,31.40
2022,07,26,17,15,31.30
2022,07,26,17,16,31.20
2022,07,26,17,17,31.10
2022,07,26,17,18,31.00
2022,07,26,17,19,30.90